Pardubice, Czech Republic

11:12 AM CEST on May 25, 2017 (GMT +0200)
Pardubice

Weather History for LKPD - February, 2013

Change the Weather History Date:

Thursday, February 7, 2013

  Actual Average Record
Temperature  
Mean Temperature 28 °F -  
Max Temperature 35 °F - - ()
Min Temperature 21 °F - - ()
Degree Days  
Heating Degree Days 37    
Moisture  
Dew Point 24 °F    
Average Humidity 84    
Maximum Humidity 100    
Minimum Humidity 65    
Precipitation  
Precipitation 0.00 in - - ()
Sea Level Pressure  
Sea Level Pressure 29.67 in    
Wind  
Wind Speed 2 mph ()    
Max Wind Speed 8 mph    
Max Gust Speed -    
Visibility 6.0 miles    
Events      
T = Trace of Precipitation, MM = Missing Value Source: Averaged Metar Reports

Daily Weather History Graph

Daily Weather History Graph

Search for Another Location

Airport or City:

Trip Planner

Search our weather history database for the weather conditions in past years. The results will help you decide how hot, cold, wet, or windy it might be!

Date:

Astronomy

Feb. 07, 2013 Rise Set
Actual Time 7:21 AM CET 5:01 PM CET
Civil Twilight 6:47 AM CET 5:35 PM CET
Nautical Twilight 6:08 AM CET 6:14 PM CET
Astronomical Twilight 5:31 AM CET 6:51 PM CET
Moon 4:55 AM CET (2/7) 1:56 PM CET (2/7)
Length of Visible Light 10h 48m
Length of Day
9h 40m
Waning Crescent, 11% of the Moon is Illuminated
Feb 7
Waning Crescent
Feb 10
New
Feb 17
First Quarter
Feb 25
Full
Mar 4
Last Quarter

Hourly Weather History & Observations

Time (CET) Temp. Windchill Dew Point Humidity Pressure Visibility Wind Dir Wind Speed Gust Speed Precip Events Conditions
12:00 AM 23.0 °F - 19.4 °F 86% 29.56 in - Calm Calm - N/A   Clear
1:00 AM 23.0 °F - 21.2 °F 93% 29.59 in - Calm Calm - N/A   Clear
2:00 AM 23.0 °F - 21.2 °F 93% 29.59 in - Calm Calm - N/A   Clear
3:00 AM 23.0 °F - 21.2 °F 93% 29.59 in - Variable 1.2 mph - N/A   Clear
4:00 AM 23.0 °F - 21.2 °F 93% 29.59 in - West 2.3 mph - N/A   Clear
5:00 AM 21.2 °F - 21.2 °F 100% 29.62 in - Calm Calm - N/A   Clear
6:00 AM 21.2 °F - 21.2 °F 100% 29.62 in - West 1.2 mph - N/A   Clear
7:00 AM 21.2 °F - 19.4 °F 93% 29.62 in 5.0 mi Calm Calm - N/A   Unknown
8:00 AM 21.2 °F - 19.4 °F 93% 29.65 in - WNW 1.2 mph - N/A   Clear
9:00 AM 23.0 °F - 21.2 °F 93% 29.65 in - West 1.2 mph - N/A   Clear
10:00 AM 28.4 °F - 24.8 °F 86% 29.68 in - Variable 2.3 mph - N/A   Clear
11:00 AM 32.0 °F 28.7 °F 26.6 °F 80% 29.68 in - West 3.5 mph - N/A   Clear
12:00 PM 35.6 °F 31.7 °F 24.8 °F 65% 29.68 in - NW 4.6 mph - N/A   Clear
1:00 PM 35.6 °F 29.2 °F 24.8 °F 65% 29.68 in 6.2 mi NW 8.1 mph - N/A   Mostly Cloudy
2:00 PM 35.6 °F 29.9 °F 24.8 °F 65% 29.68 in 6.2 mi WNW 6.9 mph - N/A   Mostly Cloudy
3:00 PM 35.6 °F 30.7 °F 24.8 °F 65% 29.71 in 6.2 mi NW 5.8 mph - N/A   Mostly Cloudy
4:00 PM 35.6 °F 29.9 °F 24.8 °F 65% 29.71 in - WNW 6.9 mph - N/A   Clear
5:00 PM 35.6 °F 29.2 °F 26.6 °F 70% 29.71 in - WNW 8.1 mph - N/A   Clear
6:00 PM 33.8 °F 29.6 °F 24.8 °F 70% 29.74 in - WNW 4.6 mph - N/A   Clear
7:00 PM 30.2 °F 26.7 °F 26.6 °F 86% 29.74 in - West 3.5 mph - N/A   Clear
8:00 PM 28.4 °F 21.2 °F 26.6 °F 93% 29.77 in - West 6.9 mph - N/A   Clear
9:00 PM 28.4 °F - 26.6 °F 93% 29.77 in - WSW 2.3 mph - N/A   Clear
10:00 PM 28.4 °F - 26.6 °F 93% 29.77 in 6.2 mi WNW 2.3 mph - N/A   Mostly Cloudy
11:00 PM 28.4 °F - 26.6 °F 93% 29.77 in 6.2 mi Calm Calm - N/A   Mostly Cloudy